PLATFORM,DATE (YYYY/MM/DD HH:MI:SS),LATITUDE (degree_north),LONGITUDE (degree_east),DEPH LEVEL1(meter),TEMP LEVEL1(degree_Celsius),DEPH LEVEL2(meter),NSCT LEVEL2(meter/second),EWCT LEVEL2(meter/second),QC,SVP_RCBN_Number,SVP_GNRL_ImmPercent,SVP_GNRL_BattVolt
62817,2010/04/30 12:04:15,42.7016,9.5659,0.5,18.2,50,,,011171799,9,0,11.8
62817,2010/04/30 13:00:15,42.7000,9.5641,0.5,18.2,50,-0.05295,-0.043777,011171700,9,0,11.8
62817,2010/04/30 14:00:10,42.6981,9.5606,0.5,18.44,50,-0.058768,-0.079561,011171700,9,0,11.8
62817,2010/04/30 15:00:15,42.6967,9.5572,0.5,18.44,50,-0.043182,-0.077075,011171700,6,0,11.8
62817,2010/04/30 16:00:39,42.6954,9.5539,0.5,18.28,50,-0.039888,-0.074418,011171700,7,0,11.8
62817,2010/04/30 17:00:15,42.6945,9.5497,0.5,18.2,50,-0.027985,-0.095986,011171700,7,0,11.8
62817,2010/04/30 18:00:15,42.6942,9.5455,0.5,18.12,50,-0.009266,-0.095347,011171700,5,0,11.8
62817,2010/04/30 19:00:39,42.6935,9.5412,0.5,18.2,50,-0.021478,-0.096972,011171700,7,0,11.8
62817,2010/04/30 20:00:15,42.6938,9.5371,0.5,18.28,50,0.009328,-0.093703,011171700,4,0,11.8
62817,2010/04/30 21:00:10,42.6937,9.5332,0.5,18.04,50,-0.003093,-0.088661,011171700,5,0,11.8
62817,2010/04/30 22:00:39,42.6945,9.5306,0.5,17.88,50,0.024513,-0.058553,011171700,8,0,11.8
62817,2010/04/30 23:00:15,42.6952,9.5284,0.5,17.72,50,0.021766,-0.050279,011171700,5,0,11.8
62817,2010/05/01 00:00:16,42.6952,9.5249,0.5,17.64,50,0,-0.079433,011171700,7,0,11.8
62817,2010/05/01 01:00:15,42.6948,9.5204,0.5,17.4,50,-0.012358,-0.102185,011171700,10,0,11.8
62817,2010/05/01 02:00:39,42.6951,9.5156,0.5,17.48,50,0.009205,-0.108246,011171700,6,0,11.8
62817,2010/05/01 03:00:15,42.6953,9.5109,0.5,17.56,50,0.006219,-0.107413,011171700,7,0,11.8
62817,2010/05/01 04:00:15,42.6963,9.5061,0.5,17.48,50,0.030887,-0.108966,011171700,9,0,11.8
62817,2010/05/01 05:00:15,42.6974,9.5011,0.5,17.24,50,0.033976,-0.113504,011171700,8,0,11.8
62817,2010/05/01 06:00:39,42.6994,9.4970,0.5,17.08,50,0.061366,-0.092455,011171700,7,0,11.8
62817,2010/05/01 07:00:09,42.7018,9.4936,0.5,16.92,50,0.074753,-0.077827,011171700,5,0,11.8
62817,2010/05/01 08:00:15,42.7047,9.4911,0.5,17,50,0.089425,-0.056652,011171700,8,0,11.8
62817,2010/05/01 09:00:15,42.7084,9.4891,0.5,17.24,50,0.114284,-0.045395,011171700,6,0,11.8
62817,2010/05/01 10:00:39,42.7123,9.4878,0.5,17.4,50,0.119663,-0.029309,011171700,8,0,11.8
62817,2010/05/01 11:00:15,42.7166,9.4872,0.5,17.4,50,0.133708,-0.013708,011171700,4,0,11.8
62817,2010/05/01 12:00:10,42.7212,9.4871,0.5,17.4,50,0.14228,-0.002272,011171700,7,0,11.8
62817,2010/05/01 13:00:15,42.7261,9.4868,0.5,16.76,50,0.151139,-0.006798,011171700,8,0,11.8
62817,2010/05/01 14:00:39,42.7311,9.4874,0.5,17.08,50,0.153415,0.013523,011171700,6,1,11.8
62817,2010/05/01 15:00:15,42.7360,9.4891,0.5,17.16,50,0.152364,0.038827,011171700,7,0,11.8
62817,2010/05/01 16:00:15,42.7401,9.4914,0.5,17.24,50,0.126639,0.052177,011171700,5,0,11.8
62817,2010/05/01 17:00:38,42.7449,9.4939,0.5,17.4,50,0.147319,0.05635,011171700,5,1,11.8
62817,2010/05/01 18:00:15,42.7485,9.4965,0.5,17,50,0.11191,0.059354,011171700,7,3,11.8
62817,2010/05/01 19:00:15,42.7514,9.4993,0.5,17,50,0.089574,0.063508,011171700,5,1,11.8
62817,2010/05/01 20:00:39,42.7537,9.5024,0.5,17,50,0.070571,0.069844,011171700,6,3,11.8
62817,2010/05/01 21:00:15,42.7550,9.5057,0.5,17.08,50,0.040423,0.075346,011171700,4,0,11.8
62817,2010/05/01 22:00:15,42.7561,9.5091,0.5,17,50,0.033976,0.07711,011171700,5,0,11.8
62817,2010/05/01 23:00:38,42.7579,9.5123,0.5,16.76,50,0.055245,0.072111,011171700,8,0,11.8
62817,2010/05/02 00:00:15,42.7605,9.5158,0.5,16.52,50,0.080824,0.079883,011171700,9,0,11.8
62817,2010/05/02 01:00:39,42.7632,9.5199,0.5,16.44,50,0.082844,0.09236,011171700,6,0,11.8
62817,2010/05/02 02:00:09,42.7654,9.5246,0.5,16.2,50,0.068523,0.107473,011171700,7,0,11.8
62817,2010/05/02 03:00:15,42.7667,9.5298,0.5,16.2,50,0.040087,0.117716,011171700,9,0,11.8
62817,2010/05/02 04:00:39,42.7691,9.5353,0.5,16.12,50,0.073639,0.123886,011171700,11,0,11.8
62817,2010/05/02 05:00:15,42.7705,9.5412,0.5,15.96,50,0.043533,0.134675,011171700,11,0,11.8
62817,2010/05/02 06:00:16,42.7722,9.5473,0.5,15.72,50,0.052494,0.13827,011171700,11,3,11.8
62817,2010/05/02 07:00:11,42.7741,9.5541,0.5,15.96,50,0.058768,0.15439,011171700,9,0,11.8
62817,2010/05/02 08:00:39,42.7748,9.5621,0.5,16.04,50,0.021454,0.17998,011171700,7,0,11.8
62817,2010/05/02 09:00:15,42.7752,9.5704,0.5,16.28,50,0.012438,0.189442,011171700,7,0,11.8
62817,2010/05/02 10:00:15,42.7752,9.5786,0.5,16.52,50,0,0.185912,011171700,4,0,11.8
62817,2010/05/02 11:00:15,42.7755,9.5881,0.5,16.68,50,0.009266,0.215385,011171700,9,0,11.8
62817,2010/05/02 12:00:39,42.7753,9.5977,0.5,17.08,50,-0.006137,0.216211,011171700,6,0,11.8
62817,2010/05/02 13:00:15,42.7743,9.6073,0.5,17.32,50,-0.031095,0.219115,011171700,8,0,11.8
62817,2010/05/02 14:00:15,42.7741,9.6167,0.5,17.48,50,-0.006177,0.213122,011171700,8,0,11.8
62817,2010/05/02 15:00:15,42.7739,9.6257,0.5,17.56,50,-0.006177,0.204053,011171700,8,0,11.8
62817,2010/05/02 16:00:39,42.7744,9.6351,0.5,17.48,50,0.015341,0.21171,011171700,5,0,11.8
62817,2010/05/02 17:00:15,42.7742,9.6440,0.5,17.56,50,-0.006219,0.203139,011171700,1,0,11.8
62817,2010/05/02 18:00:16,42.7735,9.6529,0.5,17.48,50,-0.021615,0.20173,011171700,5,0,11.8
62817,2010/05/02 19:00:39,42.7738,9.6613,0.5,17.4,50,0.009207,0.189242,011171700,6,0,11.8
62817,2010/05/02 20:00:15,42.7741,9.6688,0.5,17.48,50,0.009328,0.171186,011171700,5,0,11.8
62817,2010/05/02 21:00:10,42.7748,9.6770,0.5,17.48,50,0.021651,0.186172,011171700,7,0,11.8
62817,2010/05/02 22:00:39,42.7753,9.6841,0.5,17.48,50,0.01532,0.159686,011171700,4,0,11.8
62817,2010/05/02 23:00:15,42.7762,9.6904,0.5,17.4,50,0.027985,0.143792,011171700,6,0,11.8
62817,2010/05/03 00:00:16,42.7778,9.6958,0.5,17.4,50,0.049406,0.122392,011171700,8,3,11.8
62817,2010/05/03 01:00:39,42.7802,9.7011,0.5,17.4,50,0.073659,0.119392,011171700,7,0,11.8
62817,2010/05/03 02:00:15,42.7831,9.7064,0.5,17.48,50,0.090175,0.120956,011171700,9,0,11.8
62817,2010/05/03 03:00:15,42.7865,9.7123,0.5,17.4,50,0.105017,0.133745,011171700,8,3,11.8
62817,2010/05/03 04:00:39,42.7896,9.7184,0.5,17.32,50,0.095117,0.137356,011171700,10,0,11.8
62817,2010/05/03 05:00:15,42.7930,9.7252,0.5,17.24,50,0.105722,0.155165,011171700,8,1,11.8
62817,2010/05/03 06:00:10,42.7967,9.7323,0.5,17.24,50,0.114443,0.161145,011171700,8,1,11.8
62817,2010/05/03 07:00:15,42.8010,9.7390,0.5,17.24,50,0.132632,0.151635,011171700,9,1,11.8
62817,2010/05/03 08:00:39,42.8058,9.7456,0.5,17.4,50,0.147278,0.148578,011171700,6,0,11.8
62817,2010/05/03 09:00:15,42.8104,9.7519,0.5,17.48,50,0.143036,0.143717,011171700,9,0,11.8
62817,2010/05/03 10:00:15,42.8151,9.7572,0.5,17.64,50,0.145171,0.120089,011171700,7,0,11.8
62817,2010/05/03 11:00:11,42.8206,9.7615,0.5,17.88,50,0.17007,0.097531,011171700,8,0,11.8
62817,2010/05/03 12:00:39,42.8271,9.7649,0.5,17.96,50,0.199219,0.07643,011171700,8,0,11.8
62817,2010/05/03 13:00:15,42.8345,9.7671,0.5,17.8,50,0.230101,0.050168,011171700,5,0,11.8
62817,2010/05/03 14:00:15,42.8430,9.7686,0.5,17.8,50,0.262544,0.033973,011171700,8,0,11.8
62817,2010/05/03 15:00:15,42.8519,9.7693,0.5,17.72,50,0.274899,0.015852,011171700,8,1,11.8
62817,2010/05/03 16:00:39,42.8609,9.7686,0.5,17.72,50,0.276146,-0.015745,011171700,4,1,11.8
62817,2010/05/03 17:00:15,42.8700,9.7676,0.5,17.72,50,0.282962,-0.022791,011171700,9,9,11.8
62817,2010/05/03 18:00:16,42.8785,9.7660,0.5,17.48,50,0.262471,-0.036207,011171700,8,76,11.8
62817,2010/05/03 19:00:38,42.8885,9.7639,0.5,17.4,50,0.306999,-0.047239,011171700,5,98,11.8
62817,2010/05/03 20:00:15,42.8978,9.7611,0.5,17,50,0.289101,-0.063768,011171700,6,66,11.8
62817,2010/05/03 21:00:15,42.9068,9.7564,0.5,16.76,50,0.277987,-0.10634,011171700,5,71,11.8
62817,2010/05/03 22:00:39,42.9156,9.7507,0.5,16.52,50,0.27001,-0.128093,011171700,7,88,11.8
62817,2010/05/03 23:00:18,42.9240,9.7441,0.5,16.36,50,0.260977,-0.150162,011171700,7,80,11.8
62817,2010/05/04 00:00:39,42.9320,9.7371,0.5,16.36,50,0.245667,-0.157395,011171700,4,93,11.8
62817,2010/05/04 01:00:15,42.9396,9.7296,0.5,16.36,50,0.23632,-0.170738,011171700,5,65,11.8
62817,2010/05/04 02:00:15,42.9468,9.7210,0.5,16.36,50,0.22239,-0.194451,011171700,9,87,11.8
62817,2010/05/04 03:00:15,42.9538,9.7111,0.5,16.36,50,0.216212,-0.223819,011171700,6,100,11.8
62817,2010/05/04 04:00:39,42.9610,9.7007,0.5,16.36,50,0.220917,-0.233538,011171700,8,36,11.8
62817,2010/05/04 05:00:15,42.9684,9.6901,0.5,16.28,50,0.230101,-0.241196,011171700,6,87,11.8
62817,2010/05/04 06:00:10,42.9762,9.6809,0.5,16.2,50,0.241257,-0.208208,011171700,9,98,11.8
62817,2010/05/04 07:00:39,42.9833,9.6722,0.5,16.2,50,0.217549,-0.195024,011171700,6,100,11.8
62817,2010/05/04 08:00:15,42.9895,9.6644,0.5,16.44,50,0.192788,-0.177421,011171700,8,100,11.8
62817,2010/05/04 09:00:15,42.9949,9.6584,0.5,16.44,50,0.166792,-0.135555,011171700,5,100,11.8
62817,2010/05/04 10:00:39,42.9983,9.6540,0.5,16.6,50,0.104322,-0.098742,011171700,7,100,11.8
62817,2010/05/04 11:00:15,43.0010,9.6505,0.5,16.76,50,0.083956,-0.079595,011171700,9,69,11.8
62817,2010/05/04 12:00:10,43.0024,9.6475,0.5,16.92,50,0.043303,-0.067861,011171700,4,55,11.8
62817,2010/05/04 13:00:15,43.0034,9.6435,0.5,17.08,50,0.030845,-0.090229,011171700,4,88,11.8
62817,2010/05/04 14:00:35,43.0042,9.6378,0.5,17.08,50,0.024573,-0.128042,011171700,3,79,11.8
62817,2010/05/04 15:00:15,43.0053,9.6311,0.5,17.08,50,0.034166,-0.152185,011171700,5,19,11.8
62817,2010/05/04 16:00:21,43.0052,9.6252,0.5,17,50,-0.003084,-0.133046,011171700,4,92,11.8
62817,2010/05/04 17:00:03,42.9525,9.6225,0.5,-3.48,50,-1.63595,-0.06132,014474700,1,69,11.8
62817,2010/05/04 17:00:35,43.0037,9.6193,0.5,17,50,,,011171799,4,69,11.8
62817,2010/05/04 18:00:16,43.0015,9.6130,0.5,17,50,-0.068313,-0.143064,011171700,5,76,11.8
62817,2010/05/04 19:00:39,42.9986,9.6073,0.5,16.92,50,-0.089005,-0.127944,011171700,5,38,11.8
62817,2010/05/04 20:00:15,42.9951,9.6027,0.5,16.76,50,-0.108832,-0.104615,011171700,4,3,11.8
62817,2010/05/04 21:00:15,42.9916,9.5982,0.5,16.52,50,-0.108106,-0.101665,011171700,5,73,11.8
62817,2010/05/04 22:00:39,42.9881,9.5939,0.5,16.6,50,-0.10739,-0.096508,011171700,5,12,11.8
62817,2010/05/04 23:00:15,42.9844,9.5893,0.5,16.52,50,-0.115051,-0.104633,011171700,4,0,11.8
62817,2010/05/05 00:00:15,42.9805,9.5858,0.5,16.44,50,-0.120461,-0.079086,011171700,5,0,11.8
62817,2010/05/05 01:00:16,42.9764,9.5831,0.5,16.52,50,-0.126603,-0.060997,011171700,6,0,11.8
62817,2010/05/05 02:00:39,42.9717,9.5805,0.5,16.36,50,-0.14425,-0.058385,011171700,8,0,11.8
62817,2010/05/05 03:00:15,42.9668,9.5785,0.5,16.36,50,-0.152364,-0.045505,011171700,10,1,11.8
62817,2010/05/05 04:00:15,42.9622,9.5755,0.5,16.44,50,-0.142082,-0.067808,011171700,8,0,11.8
62817,2010/05/05 05:00:39,42.9569,9.5739,0.5,16.44,50,-0.16262,-0.035928,011171700,8,0,11.8
62817,2010/05/05 06:00:15,42.9508,9.5730,0.5,16.44,50,-0.189678,-0.020483,011171700,5,0,11.8
62817,2010/05/05 07:00:15,42.9441,9.5729,0.5,16.52,50,-0.206946,-0.002261,011171700,7,0,11.8
62817,2010/05/05 08:00:39,42.9367,9.5726,0.5,16.68,50,-0.227054,-0.006739,011171700,4,0,11.8
62817,2010/05/05 09:00:15,42.9302,9.5737,0.5,16.68,50,-0.202116,0.025042,011171700,4,0,11.8
62817,2010/05/05 10:00:21,42.9228,9.5744,0.5,16.68,50,-0.228187,0.015805,011171700,1,0,11.8
62817,2010/05/05 11:00:15,42.9152,9.5756,0.5,16.6,50,-0.235137,0.027189,011171700,1,3,11.8
62817,2010/05/05 12:00:38,42.9070,9.5788,0.5,16.52,50,-0.251669,0.071932,011171700,5,1,11.8
62817,2010/05/05 13:00:15,42.8989,9.5811,0.5,16.6,50,-0.251797,0.052373,011171700,7,4,11.8
62817,2010/05/05 14:00:15,42.8917,9.5843,0.5,16.6,50,-0.22239,0.07241,011171700,4,0,11.8
62817,2010/05/05 15:00:15,42.8853,9.5865,0.5,16.6,50,-0.19768,0.049787,011171700,6,0,11.8
62817,2010/05/05 16:00:39,42.8789,9.5893,0.5,16.6,50,-0.196371,0.062953,011171700,8,0,11.7
62817,2010/05/05 17:00:11,42.8726,9.5910,0.5,16.6,50,-0.196116,0.038782,011171700,5,4,11.7
62817,2010/05/05 18:00:15,42.8682,9.5921,0.5,16.52,50,-0.135754,0.024873,011171700,5,41,11.7
62817,2010/05/05 19:00:39,42.8636,9.5923,0.5,16.44,50,-0.141141,0.004498,011171700,6,76,11.7
62817,2010/05/05 20:00:15,42.8602,9.5934,0.5,16.52,50,-0.105722,0.025072,011171700,4,100,11.7
62817,2010/05/05 21:00:15,42.8576,9.5951,0.5,16.52,50,-0.080307,0.038491,011171700,1,98,11.7
62817,2010/05/05 22:00:39,42.8551,9.5974,0.5,16.6,50,-0.076707,0.051733,011171700,1,11,11.7
62817,2010/05/05 23:00:15,42.8524,9.6001,0.5,16.6,50,-0.083956,0.061547,011171700,1,0,11.7
62817,2010/05/06 00:00:15,42.8500,9.6033,0.5,16.6,50,-0.07413,0.072462,011171700,6,33,11.7
62817,2010/05/06 01:00:39,42.8476,9.6057,0.5,16.6,50,-0.073639,0.053989,011171700,1,98,11.7
62817,2010/05/06 02:00:15,42.8455,9.6072,0.5,16.6,50,-0.065299,0.034197,011171700,8,9,11.7
62817,2010/05/06 03:00:10,42.8433,9.6082,0.5,16.6,50,-0.068047,0.022678,011171700,5,84,11.7
62817,2010/05/06 04:00:39,42.8415,9.6084,0.5,16.6,50,-0.055153,0.004493,011171700,9,93,11.7
62817,2010/05/06 05:00:15,42.8402,9.6081,0.5,16.52,50,-0.040423,-0.00684,011171700,5,96,11.7
62817,2010/05/06 06:00:11,42.8388,9.6081,0.5,16.36,50,-0.043291,0,011171700,9,41,11.7
62817,2010/05/06 07:00:39,42.8380,9.6079,0.5,16.36,50,-0.024519,-0.004495,011171700,5,49,11.7
62817,2010/05/06 08:00:15,42.8373,9.6080,0.5,16.36,50,-0.021766,0.00228,011171700,4,28,11.7
62817,2010/05/06 09:00:15,42.8364,9.6081,0.5,16.36,50,-0.027799,0.002265,011171700,1,0,11.7
62817,2010/05/06 10:00:39,42.8349,9.6085,0.5,16.36,50,-0.046024,0.009,011171700,3,0,11.7
62817,2010/05/06 11:00:15,42.8330,9.6082,0.5,16.44,50,-0.05908,-0.006841,011171700,1,0,11.7
62817,2010/05/06 12:00:15,42.8308,9.6087,0.5,16.44,50,-0.067952,0.011326,011171700,7,0,11.7
62817,2010/05/06 13:00:15,42.8285,9.6087,0.5,16.44,50,-0.071041,0,011171700,6,6,11.7
62817,2010/05/06 14:00:39,42.8260,9.6074,0.5,16.44,50,-0.076707,-0.029254,011171700,6,0,11.7
62817,2010/05/06 15:00:15,42.8239,9.6065,0.5,16.44,50,-0.065299,-0.020525,011171700,8,3,11.7
62817,2010/05/06 16:00:15,42.8223,9.6059,0.5,16.36,50,-0.04942,-0.013593,011171700,8,0,11.7
62817,2010/05/06 17:00:15,42.8200,9.6047,0.5,16.36,50,-0.071041,-0.027186,011171700,5,0,11.7
62817,2010/05/06 18:00:38,42.8173,9.6033,0.5,16.36,50,-0.082867,-0.031517,011171700,6,0,11.7
62817,2010/05/06 19:00:15,42.8146,9.6016,0.5,16.44,50,-0.083932,-0.038765,011171700,4,73,11.7
62817,2010/05/06 20:00:15,42.8117,9.5982,0.5,16.44,50,-0.089574,-0.077038,011171700,6,100,11.7
62817,2010/05/06 21:00:17,42.8090,9.5953,0.5,16.2,50,-0.08335,-0.065675,011171700,3,0,11.7
62817,2010/05/06 22:00:39,42.8062,9.5917,0.5,16.2,50,-0.08596,-0.081082,011171700,1,0,11.7
62817,2010/05/06 23:00:15,42.8032,9.5883,0.5,16.2,50,-0.093284,-0.077566,011171700,1,0,11.7
62817,2010/05/07 00:00:15,42.7997,9.5846,0.5,16.12,50,-0.108106,-0.083851,011171700,1,36,11.7
62817,2010/05/07 01:00:39,42.7962,9.5824,0.5,16.12,50,-0.10739,-0.04953,011171700,1,0,11.7
62817,2010/05/07 02:00:14,42.7919,9.5815,0.5,16.12,50,-0.133745,-0.020541,011171700,6,0,11.7
62817,2010/05/07 03:00:15,42.7869,9.5806,0.5,16.12,50,-0.154395,-0.020395,011171700,4,0,11.7
62817,2010/05/07 04:00:39,42.7808,9.5797,0.5,16.12,50,-0.187166,-0.020267,011171700,11,0,11.7
62817,2010/05/07 05:00:15,42.7741,9.5798,0.5,16.12,50,-0.208335,0.002282,011171700,6,0,11.7
62817,2010/05/07 06:00:16,42.7664,9.5801,0.5,16.12,50,-0.237768,0.0068,011171700,3,0,11.7
62817,2010/05/07 07:00:39,42.7581,9.5791,0.5,16.28,50,-0.254739,-0.022533,011171700,4,0,11.7
62817,2010/05/07 08:00:15,42.7498,9.5770,0.5,16.36,50,-0.258087,-0.047947,011171700,4,0,11.7
62817,2010/05/07 09:00:15,42.7420,9.5744,0.5,16.36,50,-0.240922,-0.058975,011171700,1,0,11.7
62817,2010/05/07 10:00:39,42.7344,9.5714,0.5,16.44,50,-0.23319,-0.067606,011171700,1,0,11.7
62817,2010/05/07 11:00:15,42.7270,9.5671,0.5,16.44,50,-0.230101,-0.098215,011171700,1,0,11.7
62817,2010/05/07 12:00:16,42.7208,9.5631,0.5,16.52,50,-0.191449,-0.090738,011171700,11,0,11.7
62817,2010/05/07 13:00:15,42.7152,9.5615,0.5,16.44,50,-0.173018,-0.036319,011171700,9,0,11.7
62817,2010/05/07 14:00:39,42.7091,9.5617,0.5,16.52,50,-0.187166,0.004509,011171700,9,0,11.7
62817,2010/05/07 15:00:15,42.7032,9.5632,0.5,16.44,50,-0.183459,0.034275,011171700,6,0,11.7
62817,2010/05/07 16:00:15,42.6972,9.5662,0.5,16.44,50,-0.185325,0.068099,011171700,7,0,11.7
62817,2010/05/07 17:00:15,42.6906,9.5698,0.5,16.44,50,-0.203857,0.081727,011171700,3,0,11.7
62817,2010/05/07 18:00:39,42.6834,9.5730,0.5,16.36,50,-0.220917,0.072173,011171700,7,0,11.7
62817,2010/05/07 19:00:15,42.6764,9.5756,0.5,16.36,50,-0.217663,0.059434,011171700,7,0,11.7
62817,2010/05/07 20:00:15,42.6692,9.5788,0.5,16.2,50,-0.22239,0.072671,011171700,1,0,11.7
62817,2010/05/07 21:00:15,42.6621,9.5816,0.5,16.2,50,-0.219301,0.063594,011171700,3,0,11.7
62817,2010/05/07 22:00:37,42.6547,9.5840,0.5,16.28,50,-0.227179,0.054185,011171700,1,0,11.7
62817,2010/05/07 23:00:12,42.6482,9.5877,0.5,16.2,50,-0.202173,0.084642,011171700,1,0,11.7
62817,2010/05/08 00:00:21,42.6430,9.5912,0.5,16.2,50,-0.160214,0.07932,011171700,1,0,11.7
62817,2010/05/08 01:00:39,42.6377,9.5961,0.5,16.2,50,-0.162889,0.110781,011171700,1,0,11.7
62817,2010/05/08 02:00:15,42.6321,9.6013,0.5,16.04,50,-0.174131,0.118955,011171700,8,0,11.7
62817,2010/05/08 03:00:11,42.6267,9.6078,0.5,16.12,50,-0.166978,0.14788,011171700,7,0,11.7
62817,2010/05/08 04:00:39,42.6206,9.6149,0.5,16.12,50,-0.186959,0.16012,011171700,7,0,11.7
62817,2010/05/08 05:00:15,42.6148,9.6217,0.5,16.12,50,-0.18035,0.155599,011171700,8,0,11.7
62817,2010/05/08 06:00:16,42.6088,9.6289,0.5,16.2,50,-0.185273,0.163624,011171700,7,0,11.7
62817,2010/05/08 07:00:39,42.6038,9.6357,0.5,16.28,50,-0.153457,0.153609,011171700,6,0,11.7
62817,2010/05/08 08:00:10,42.5991,9.6437,0.5,16.52,50,-0.14635,0.183362,011171700,6,0,11.7
62817,2010/05/08 09:00:09,42.5938,9.6518,0.5,16.68,50,-0.163749,0.184225,011171700,4,0,11.7
62817,2010/05/08 10:00:39,42.5883,9.6588,0.5,16.6,50,-0.168477,0.157861,011171700,1,0,11.7
62817,2010/05/08 11:00:15,42.5837,9.6642,0.5,16.52,50,-0.143036,0.123627,011171700,1,0,11.7
62817,2010/05/08 12:00:10,42.5807,9.6688,0.5,16.68,50,-0.092791,0.104762,011171700,6,0,11.7
62817,2010/05/08 13:00:09,42.5776,9.6738,0.5,16.68,50,-0.095778,0.113751,011171700,5,0,11.7
62817,2010/05/08 14:00:39,42.5748,9.6777,0.5,16.68,50,-0.08577,0.087972,011171700,4,0,11.7
62817,2010/05/08 15:00:15,42.5734,9.6825,0.5,16.6,50,-0.043533,0.109912,011171700,6,0,11.7
62817,2010/05/08 16:00:11,42.5721,9.6874,0.5,16.6,50,-0.040198,0.11158,011171700,5,0,11.7
62817,2010/05/08 17:00:15,42.5707,9.6917,0.5,16.68,50,-0.043194,0.097702,011171700,4,0,11.7
62817,2010/05/08 18:00:38,42.5708,9.6959,0.5,16.76,50,0.003069,0.09493,011171700,6,0,11.7
62817,2010/05/08 19:00:15,42.5725,9.7017,0.5,16.76,50,0.052846,0.132778,011171700,6,0,11.7
62817,2010/05/08 20:00:15,42.5749,9.7097,0.5,16.6,50,0.07413,0.181966,011171700,4,0,11.7
62817,2010/05/08 21:00:15,42.5772,9.7180,0.5,16.68,50,0.071041,0.188783,011171700,4,0,11.7
62817,2010/05/08 22:00:39,42.5793,9.7260,0.5,16.6,50,0.064434,0.180748,011171700,1,0,11.7
62817,2010/05/08 23:00:15,42.5816,9.7344,0.5,16.52,50,0.071518,0.192326,011171700,3,0,11.7
62817,2010/05/09 00:00:15,42.5843,9.7424,0.5,16.6,50,0.083396,0.181939,011171700,1,0,11.7
62817,2010/05/09 01:00:39,42.5870,9.7514,0.5,16.6,50,0.082844,0.203317,011171700,1,0,11.7
62817,2010/05/09 02:00:15,42.5897,9.7607,0.5,16.6,50,0.083956,0.212905,011171700,10,0,11.7
62817,2010/05/09 03:00:15,42.5925,9.7703,0.5,16.6,50,0.086485,0.218299,011171700,8,0,11.7
62817,2010/05/09 04:00:39,42.5946,9.7804,0.5,16.6,50,0.064434,0.228138,011171700,8,0,11.7
62817,2010/05/09 05:00:15,42.5970,9.7896,0.5,16.52,50,0.074627,0.210591,011171700,7,0,11.7
62817,2010/05/09 06:00:39,42.5996,9.7981,0.5,16.44,50,0.079776,0.191983,011171700,6,0,11.7
62817,2010/05/09 07:00:16,42.6026,9.8060,0.5,16.44,50,0.093258,0.180768,011171700,6,0,11.7
62817,2010/05/09 08:00:09,42.6065,9.8134,0.5,16.68,50,0.120696,0.168563,011171700,3,0,11.7
62817,2010/05/09 09:00:09,42.6112,9.8212,0.5,17,50,0.145171,0.177317,011171700,3,0,11.7
62817,2010/05/09 10:00:39,42.6160,9.8296,0.5,17.16,50,0.147035,0.189364,011171700,3,0,11.7
62817,2010/05/09 11:00:15,42.6210,9.8378,0.5,17.16,50,0.155474,0.187632,011171700,1,0,11.7
62817,2010/05/09 12:00:15,42.6261,9.8457,0.5,17.08,50,0.157526,0.179548,011171700,1,0,11.7
62817,2010/05/09 13:00:05,42.6309,9.8534,0.5,17.08,50,0.148673,0.175476,011171700,7,0,11.7
62817,2010/05/09 14:00:39,42.6359,9.8611,0.5,17.16,50,0.152992,0.173338,011171700,5,1,11.7
62817,2010/05/09 15:00:15,42.6413,9.8689,0.5,17.24,50,0.167912,0.178422,011171700,6,1,11.7
62817,2010/05/09 16:00:11,42.6467,9.8760,0.5,17.16,50,0.166978,0.161492,011171700,5,7,11.7
62817,2010/05/09 17:00:15,42.6515,9.8832,0.5,17.16,50,0.148095,0.16339,011171700,5,3,11.7
62817,2010/05/09 18:00:39,42.6561,9.8893,0.5,17.16,50,0.141141,0.137653,011171700,5,4,11.7
62817,2010/05/09 19:00:16,42.6604,9.8942,0.5,17.08,50,0.13367,0.112019,011171700,6,11,11.7
62817,2010/05/09 20:00:15,42.6650,9.8981,0.5,16.92,50,0.142122,0.088606,011171700,5,20,11.7
62817,2010/05/09 21:00:39,42.6701,9.9016,0.5,16.92,50,0.156483,0.078964,011171700,1,63,11.7
62817,2010/05/09 22:00:15,42.6756,9.9042,0.5,16.92,50,0.171021,0.059441,011171700,1,31,11.7
62817,2010/05/09 23:00:15,42.6824,9.9063,0.5,16.76,50,0.210035,0.047685,011171700,1,20,11.7
62817,2010/05/10 00:00:39,42.6890,9.9083,0.5,16.76,50,0.202507,0.045109,011171700,3,47,11.7
62817,2010/05/10 01:00:15,42.6948,9.9100,0.5,16.76,50,0.18035,0.038853,011171700,1,15,11.7
62817,2010/05/10 02:00:15,42.7018,9.9113,0.5,16.76,50,0.216212,0.02951,011171700,1,69,11.7
62817,2010/05/10 03:00:15,42.7086,9.9131,0.5,16.76,50,0.210035,0.040856,011171700,9,85,11.7
62817,2010/05/10 04:00:39,42.7156,9.9144,0.5,16.76,50,0.21478,0.029308,011171700,6,98,11.7
62817,2010/05/10 05:00:15,42.7225,9.9153,0.5,16.76,50,0.214554,0.02056,011171700,6,82,11.7
62817,2010/05/10 06:00:38,42.7290,9.9158,0.5,16.76,50,0.199494,0.011273,011171700,6,84,11.7
62817,2010/05/10 07:00:16,42.7363,9.9161,0.5,16.76,50,0.226865,0.006848,011171700,3,69,11.7
62817,2010/05/10 08:00:15,42.7431,9.9156,0.5,16.76,50,0.210093,-0.011346,011171700,1,68,11.7
62817,2010/05/10 09:00:15,42.7497,9.9151,0.5,16.92,50,0.203857,-0.011341,011171700,1,93,11.7
62817,2010/05/10 10:00:39,42.7566,9.9143,0.5,16.92,50,0.211712,-0.018024,011171700,1,23,11.7
62817,2010/05/10 11:00:15,42.7636,9.9130,0.5,17,50,0.217663,-0.029679,011171700,5,42,11.7
62817,2010/05/10 12:00:15,42.7704,9.9109,0.5,17,50,0.210035,-0.047618,011171700,7,33,11.7
62817,2010/05/10 13:00:16,42.7787,9.9086,0.5,17.08,50,0.256295,-0.052132,011171700,6,30,11.7
62817,2010/05/10 14:00:39,42.7866,9.9066,0.5,17.08,50,0.242462,-0.045051,011171700,3,69,11.7
62817,2010/05/10 15:00:15,42.7942,9.9048,0.5,17.08,50,0.23632,-0.041074,011171700,8,44,11.7
62817,2010/05/10 16:00:12,42.8016,9.9028,0.5,17.08,50,0.228758,-0.045365,011171700,5,44,11.7
62817,2010/05/10 17:00:15,42.8085,9.9010,0.5,17.08,50,0.212946,-0.040756,011171700,7,93,11.7
62817,2010/05/10 18:00:39,42.8145,9.8982,0.5,17.08,50,0.184098,-0.063025,011171700,5,7,11.7
62817,2010/05/10 19:00:16,42.8203,9.8952,0.5,17,50,0.180299,-0.068407,011171700,5,15,11.7
62817,2010/05/10 20:00:09,42.8262,9.8914,0.5,17.08,50,0.182591,-0.086255,011171700,5,0,11.7
62817,2010/05/10 21:00:39,42.8323,9.8866,0.5,17.08,50,0.186856,-0.107833,011171700,1,0,11.7
62817,2010/05/10 22:00:15,42.8386,9.8819,0.5,17.16,50,0.195897,-0.10717,011171700,3,19,11.7
62817,2010/05/10 23:00:15,42.8443,9.8760,0.5,17.08,50,0.176059,-0.133622,011171700,3,0,11.7
62817,2010/05/11 00:00:39,42.8497,9.8705,0.5,17.08,50,0.165688,-0.123727,011171700,1,77,11.7
62817,2010/05/11 01:00:11,42.8557,9.8645,0.5,17.08,50,0.186778,-0.136928,011171700,1,95,11.7
62817,2010/05/11 02:00:09,42.8625,9.8585,0.5,17.08,50,0.210152,-0.135924,011171700,1,93,11.7
62817,2010/05/11 03:00:19,42.8695,9.8532,0.5,17.08,50,0.215613,-0.119654,011171700,5,82,11.7
62817,2010/05/11 04:00:39,42.8757,9.8489,0.5,17.08,50,0.190444,-0.096799,011171700,6,100,11.7
62817,2010/05/11 05:00:15,42.8807,9.8441,0.5,17.08,50,0.155474,-0.109374,011171700,7,100,11.7